EW6470 Weather Reports


Display with metric or nautical units.
time (UTC)temp
F
wind
direction
speed
MPH
gust
MPH
rain 1hr
in
rain 24hr
in
rain mn
in
humidity
%
barometer
mb
20260505220506 52 0 1.0 2.0 0.00 0.00 0.00 48 1005.0
20260505220047 52 0 1.0 3.0 0.00 0.00 0.00 50 1004.9
20260505215509 52 121 0.0 3.0 0.00 0.00 0.00 53 1004.9
20260505215009 52 65 1.0 4.0 0.00 0.00 0.00 52 1004.9
20260505214535 52 126 1.0 4.0 0.00 0.00 0.00 50 1004.9
20260505214010 52 136 1.0 6.0 0.00 0.00 0.00 50 1004.9
20260505213514 52 86 1.0 6.0 0.00 0.00 0.00 49 1004.9
20260505213032 52 83 1.0 5.0 0.00 0.00 0.00 50 1004.7
20260505212510 52 111 1.0 4.0 0.00 0.00 0.00 50 1004.7
20260505212010 52 121 1.0 5.0 0.00 0.00 0.00 49 1004.8
20260505211531 51 117 1.0 5.0 0.00 0.00 0.00 51 1004.7
20260505211012 51 65 0.0 3.0 0.00 0.00 0.00 50 1004.8
20260505210509 51 154 1.0 4.0 0.00 0.00 0.00 51 1004.8
20260505210033 51 149 0.0 6.0 0.00 0.00 0.00 51 1004.7
20260505205511 51 120 1.0 6.0 0.00 0.01 0.00 50 1004.7
20260505205011 51 104 1.0 3.0 0.00 0.01 0.00 51 1004.7
20260505204530 50 67 0.0 3.0 0.00 0.01 0.00 52 1004.7
20260505204008 50 0 1.0 4.0 0.00 0.01 0.00 53 1004.8
20260505203510 50 0 0.0 5.0 0.00 0.01 0.00 60 1004.7
20260505203028 49 0 0.0 5.0 0.00 0.01 0.00 60 1004.8
20260505202507 49 119 1.0 5.0 0.00 0.01 0.00 62 1004.8
20260505202011 48 146 2.0 5.0 0.00 0.01 0.00 62 1004.7
20260505201529 48 146 2.0 5.0 0.00 0.01 0.00 63 1004.7
20260505201010 48 76 1.0 2.0 0.00 0.01 0.00 64 1004.7
20260505200512 48 135 0.0 3.0 0.00 0.01 0.00 64 1004.7
20260505200036 48 192 1.0 3.0 0.00 0.01 0.00 65 1004.7
20260505195510 47 0 1.0 3.0 0.00 0.04 0.00 65 1004.8
20260505195015 47 107 0.0 5.0 0.00 0.04 0.00 67 1004.7
20260505194528 47 124 1.0 5.0 0.00 0.04 0.00 66 1004.6
20260505194007 47 170 1.0 6.0 0.00 0.04 0.00 67 1004.6
20260505193510 47 174 1.0 6.0 0.00 0.04 0.00 69 1004.6
20260505193028 47 150 2.0 6.0 0.00 0.04 0.00 68 1004.6
20260505192511 47 136 1.0 5.0 0.00 0.04 0.00 68 1004.5
20260505192011 48 146 2.0 4.0 0.00 0.04 0.00 65 1004.5
20260505191530 48 163 2.0 4.0 0.00 0.04 0.00 63 1004.4
20260505191014 48 88 0.0 2.0 0.00 0.04 0.00 62 1004.4
20260505190513 48 0 0.0 4.0 0.00 0.04 0.00 61 1004.3
20260505190029 48 0 1.0 5.0 0.00 0.04 0.00 61 1004.5
20260505185514 48 118 1.0 7.0 0.00 0.08 0.00 60 1004.3
20260505185011 48 165 0.0 7.0 0.00 0.08 0.00 60 1004.4
20260505184532 48 110 1.0 4.0 0.00 0.08 0.00 60 1004.3
20260505184009 48 117 2.0 4.0 0.00 0.08 0.00 59 1004.3
20260505183509 48 112 1.0 7.0 0.00 0.08 0.00 58 1004.3
20260505183035 48 181 1.0 7.0 0.00 0.08 0.00 60 1004.3
20260505182511 48 163 1.0 6.0 0.00 0.08 0.00 59 1004.3
20260505182012 48 135 1.0 5.0 0.00 0.08 0.00 57 1004.3
20260505181530 48 155 1.0 7.0 0.00 0.08 0.00 57 1004.2
20260505181010 48 144 1.0 8.0 0.00 0.08 0.00 55 1004.2
20260505180511 48 112 2.0 8.0 0.00 0.08 0.00 55 1004.0
20260505180028 48 103 0.0 4.0 0.00 0.08 0.00 55 1003.9
20260505175512 48 127 0.0 6.0 0.00 0.11 0.00 58 1004.0
20260505175011 47 103 2.0 6.0 0.00 0.11 0.00 58 1004.0
20260505174532 47 160 2.0 6.0 0.00 0.11 0.00 57 1004.0
20260505174011 47 129 2.0 6.0 0.00 0.11 0.00 57 1004.1
20260505173515 47 128 2.0 6.0 0.00 0.11 0.00 57 1004.0
20260505173031 47 112 1.0 5.0 0.00 0.11 0.00 58 1003.9
20260505172509 46 144 0.0 5.0 0.00 0.11 0.00 58 1003.8
20260505172008 46 136 1.0 7.0 0.00 0.11 0.00 58 1003.8
20260505171532 46 133 2.0 7.0 0.00 0.11 0.00 58 1003.7
20260505171010 46 137 1.0 8.0 0.00 0.11 0.00 60 1003.8
20260505170508 46 230 2.0 8.0 0.00 0.11 0.00 61 1003.7
20260505170031 46 92 1.0 4.0 0.00 0.11 0.00 61 1003.6
20260505165510 45 133 1.0 5.0 0.00 0.15 0.00 60 1003.6
20260505165011 45 0 1.0 5.0 0.00 0.15 0.00 63 1003.5
20260505164528 45 95 1.0 5.0 0.00 0.15 0.00 62 1003.5
20260505164011 45 132 0.0 2.0 0.00 0.15 0.00 64 1003.4
20260505163513 44 139 0.0 2.0 0.00 0.15 0.00 67 1003.3
20260505163028 44 0 0.0 2.0 0.00 0.15 0.00 67 1003.4
20260505162516 44 0 0.0 1.0 0.00 0.15 0.00 71 1003.4
20260505162014 43 157 0.0 1.0 0.00 0.15 0.00 71 1003.4
20260505161540 43 0 0.0 0.0 0.00 0.15 0.00 75 1003.3
20260505161011 43 0 0.0 1.0 0.00 0.15 0.00 74 1003.3
20260505160516 42 0 0.0 1.0 0.00 0.15 0.00 75 1003.2
20260505153028 42 0 0.0 2.0 0.00 0.17 0.00 80 1003.0
20260505152510 42 0 0.0 2.0 0.00 0.17 0.00 81 1002.8
20260505152010 41 0 0.0 1.0 0.00 0.17 0.00 81 1002.8
20260505151528 41 44 0.0 1.0 0.00 0.17 0.00 83 1002.7
20260505151011 41 298 0.0 1.0 0.00 0.17 0.00 84 1002.8
20260505150510 41 20 0.0 1.0 0.00 0.17 0.00 84 1002.7
20260505140511 38 0 0.0 1.0 0.00 0.21 0.00 95 1002.6
20260505125013 37 0 0.0 0.0 0.00 0.29 0.00 95 1002.6
20260505124527 38 0 0.0 0.0 0.00 0.29 0.00 95 1002.6
20260505124009 38 0 0.0 0.0 0.00 0.29 0.00 95 1002.7
20260505123507 38 0 0.0 0.0 0.00 0.29 0.00 95 1002.6
20260505123027 38 0 0.0 0.0 0.00 0.29 0.00 95 1002.5
20260505122510 38 157 0.0 0.0 0.00 0.29 0.00 95 1002.4
20260505122011 38 0 0.0 1.0 0.00 0.29 0.00 95 1002.5
20260505121534 38 0 0.0 1.0 0.00 0.29 0.00 95 1002.5
20260505121010 38 147 0.0 1.0 0.00 0.29 0.00 95 1002.5
20260505120512 38 0 0.0 0.0 0.00 0.29 0.00 95 1002.4
20260505120031 38 0 0.0 0.0 0.00 0.29 0.00 95 1002.3
20260505115509 39 0 0.0 0.0 0.00 0.33 0.00 95 1002.3
20260505115008 39 0 0.0 2.0 0.00 0.33 0.00 95 1002.2
20260505114527 39 0 0.0 2.0 0.00 0.33 0.00 95 1002.3
20260505114007 39 164 0.0 2.0 0.00 0.33 0.00 95 1002.4
20260505113509 39 173 0.0 2.0 0.00 0.33 0.00 95 1002.4
20260505113026 39 164 1.0 2.0 0.00 0.33 0.00 95 1002.4
20260505112513 38 134 0.0 1.0 0.00 0.33 0.00 95 1002.3
20260505112010 38 0 0.0 1.0 0.00 0.33 0.00 95 1002.3
20260505111528 38 159 0.0 0.0 0.00 0.33 0.00 95 1002.2
20260505111013 38 0 0.0 0.0 0.00 0.33 0.00 95 1002.2
20260505110512 38 0 0.0 0.0 0.00 0.33 0.00 95 1002.2
20260505102012 39 159 0.0 0.0 0.00 0.37 0.00 95 1002.4
20260505101535 39 0 0.0 0.0 0.00 0.37 0.00 95 1002.4
20260505101009 39 0 0.0 0.0 0.00 0.37 0.00 94 1002.4
20260505100510 39 0 0.0 0.0 0.00 0.37 0.00 94 1002.3
20260505100034 39 0 0.0 0.0 0.00 0.37 0.00 94 1002.5
20260505095513 39 0 0.0 0.0 0.00 0.39 0.00 94 1002.6
20260505095009 39 0 0.0 0.0 0.00 0.39 0.00 94 1002.6
20260505094527 39 0 0.0 0.0 0.00 0.39 0.00 94 1002.5
20260505094011 39 0 0.0 1.0 0.00 0.39 0.00 94 1002.3
20260505093510 39 159 0.0 2.0 0.00 0.39 0.00 94 1002.5
20260505093033 39 0 0.0 2.0 0.00 0.39 0.00 94 1002.4
20260505092511 39 244 0.0 1.0 0.00 0.39 0.00 94 1002.4
20260505092011 39 322 0.0 0.0 0.00 0.39 0.00 94 1002.4
20260505091534 39 0 0.0 1.0 0.00 0.39 0.00 94 1002.4
20260505091010 39 0 0.0 1.0 0.00 0.39 0.00 94 1002.4
20260505090510 39 0 0.0 1.0 0.00 0.39 0.00 93 1002.4
20260505090041 40 0 0.0 1.0 0.00 0.39 0.00 93 1002.5
20260505085509 40 0 0.0 1.0 0.00 0.42 0.00 93 1002.6
20260505085008 40 0 0.0 1.0 0.00 0.42 0.00 93 1002.6
20260505084527 40 289 0.0 1.0 0.00 0.42 0.00 93 1002.6
20260505084011 40 157 0.0 1.0 0.00 0.42 0.00 93 1002.4
20260505083509 40 157 0.0 5.0 0.00 0.42 0.00 92 1002.7
20260505083029 40 134 0.0 5.0 0.00 0.42 0.00 92 1002.5
20260505082515 41 153 2.0 4.0 0.00 0.42 0.00 91 1002.6
20260505082011 41 142 1.0 4.0 0.00 0.42 0.00 90 1002.6
20260505081531 41 154 2.0 4.0 0.00 0.42 0.00 89 1002.5
20260505081013 41 0 0.0 1.0 0.00 0.42 0.00 89 1002.4
20260505080508 41 0 0.0 1.0 0.00 0.42 0.00 89 1002.4
20260505080041 41 0 0.0 1.0 0.00 0.42 0.00 88 1002.6
20260505075510 41 0 0.0 0.0 0.00 0.45 0.42 89 1002.3
20260505075011 41 0 0.0 0.0 0.00 0.45 0.42 88 1002.4
20260505074530 42 0 0.0 1.0 0.00 0.45 0.42 87 1002.5
20260505074011 42 0 0.0 1.0 0.00 0.45 0.42 87 1002.6
20260505073508 42 0 0.0 0.0 0.00 0.45 0.42 87 1002.5
20260505073034 42 0 0.0 0.0 0.00 0.45 0.42 86 1002.6
20260505072508 43 0 0.0 0.0 0.00 0.45 0.42 85 1002.5
20260505072011 43 0 0.0 0.0 0.00 0.45 0.42 85 1002.6
20260505071537 43 0 0.0 0.0 0.00 0.45 0.42 84 1002.8
20260505071010 43 0 0.0 0.0 0.00 0.45 0.42 84 1002.9
20260505070510 43 0 0.0 0.0 0.00 0.45 0.42 84 1002.9
20260505070029 44 0 0.0 0.0 0.00 0.45 0.42 83 1002.9
20260505065509 44 0 0.0 0.0 0.00 0.48 0.42 83 1003.1
20260505065011 44 0 0.0 0.0 0.00 0.48 0.42 82 1003.0
20260505064533 44 153 0.0 0.0 0.00 0.48 0.42 81 1003.1
20260505064009 45 0 0.0 0.0 0.00 0.48 0.42 80 1002.9
20260505063511 45 0 0.0 1.0 0.00 0.48 0.42 79 1002.9
20260505063028 45 0 0.0 2.0 0.00 0.48 0.42 79 1002.7
20260505062511 46 153 0.0 2.0 0.00 0.48 0.42 78 1002.7
20260505062010 46 138 0.0 2.0 0.00 0.48 0.42 78 1002.7
20260505061531 46 126 0.0 1.0 0.00 0.48 0.42 79 1002.8
20260505061010 46 0 0.0 1.0 0.00 0.48 0.42 79 1002.7
20260505060514 46 0 0.0 1.0 0.00 0.48 0.42 79 1002.9
20260505060034 46 0 0.0 1.0 0.00 0.48 0.42 79 1003.0
20260505055515 47 252 0.0 1.0 0.00 0.49 0.42 78 1002.9
20260505055014 47 0 0.0 1.0 0.00 0.49 0.42 77 1003.0
20260505054530 47 252 0.0 1.0 0.00 0.49 0.42 77 1003.0
20260505054015 48 0 0.0 0.0 0.00 0.49 0.42 76 1003.1
20260505053510 48 0 0.0 0.0 0.00 0.49 0.42 75 1003.1
20260505053029 48 252 0.0 3.0 0.00 0.49 0.42 74 1003.1
20260505052512 49 0 0.0 3.0 0.00 0.49 0.42 72 1003.2
20260505052011 49 205 0.0 1.0 0.00 0.49 0.42 72 1003.3
20260505051530 49 0 0.0 1.0 0.00 0.49 0.42 71 1003.2
20260505051013 49 0 0.0 4.0 0.00 0.49 0.42 71 1003.3
20260505050510 49 0 0.0 4.0 0.00 0.49 0.42 70 1003.4
20260505041531 51 87 3.0 9.0 0.00 0.51 0.42 67 1003.6
20260505041010 52 155 3.0 8.0 0.00 0.51 0.42 66 1003.7
20260505040510 53 114 3.0 8.0 0.00 0.51 0.42 64 1003.8
20260505040033 53 162 1.0 7.0 0.00 0.51 0.42 61 1003.8
20260505035511 53 125 2.0 7.0 0.00 0.52 0.42 60 1003.8
20260505035012 54 115 2.0 9.0 0.00 0.52 0.42 59 1003.8
20260505034528 54 96 2.0 9.0 0.00 0.52 0.42 59 1003.9
20260505034011 54 107 2.0 7.0 0.00 0.52 0.42 59 1004.1
20260505033513 54 124 2.0 8.0 0.00 0.52 0.42 59 1004.2
20260505033037 54 104 2.0 8.0 0.00 0.52 0.42 60 1004.2
20260505032509 53 108 3.0 7.0 0.00 0.52 0.42 60 1004.4
20260505032011 52 144 1.0 7.0 0.00 0.52 0.42 64 1004.6
20260505031530 52 81 1.0 10.0 0.00 0.52 0.42 65 1004.7
20260505031012 51 126 2.0 10.0 0.00 0.52 0.42 66 1004.8
20260505030508 51 107 1.0 9.0 0.00 0.52 0.42 69 1004.9
20260505030027 50 229 4.0 9.0 0.00 0.52 0.42 70 1005.0
20260505025511 50 138 3.0 7.0 0.00 0.52 0.42 70 1005.2
20260505025011 50 198 2.0 8.0 0.00 0.52 0.42 71 1005.3
20260505024544 51 189 3.0 9.0 0.00 0.52 0.42 69 1005.3
20260505024010 51 168 3.0 9.0 0.00 0.52 0.42 68 1005.3
20260505023509 51 76 3.0 7.0 0.00 0.52 0.42 69 1005.4
20260505023038 51 213 2.0 14.0 0.00 0.52 0.42 68 1005.4
20260505022511 52 178 4.0 14.0 0.00 0.52 0.42 67 1005.5
20260505022011 52 227 5.0 14.0 0.00 0.52 0.42 67 1005.5
20260505021530 53 186 2.0 10.0 0.00 0.52 0.42 67 1005.6
20260505021011 53 192 4.0 11.0 0.00 0.52 0.42 70 1005.6
20260505020509 52 159 4.0 11.0 0.00 0.52 0.42 69 1005.7
20260505020030 52 115 3.0 9.0 0.00 0.52 0.42 67 1005.8
20260505015511 52 102 3.0 9.0 0.00 0.52 0.42 66 1005.9
20260505015008 52 48 3.0 9.0 0.00 0.52 0.42 68 1006.2
20260505014535 51 82 3.0 12.0 0.00 0.52 0.42 71 1006.2
20260505014014 51 134 3.0 12.0 0.00 0.52 0.42 72 1006.4
20260505013510 50 136 4.0 10.0 0.00 0.52 0.42 74 1006.5
20260505013027 50 167 3.0 9.0 0.00 0.52 0.42 76 1006.5
20260505012508 50 198 3.0 9.0 0.00 0.52 0.42 78 1006.5
20260505012008 50 149 2.0 9.0 0.00 0.52 0.42 78 1006.6
20260505011531 50 156 2.0 9.0 0.00 0.52 0.42 78 1006.8
20260505011010 49 128 1.0 5.0 0.00 0.52 0.42 79 1006.9
20260505010511 49 108 2.0 7.0 0.00 0.52 0.42 78 1007.0
20260505010030 50 123 2.0 9.0 0.00 0.52 0.42 78 1007.0
20260505005508 50 153 3.0 9.0 0.00 0.52 0.42 78 1007.2
20260505005011 50 148 1.0 6.0 0.00 0.52 0.42 79 1007.1
20260505004530 50 69 2.0 6.0 0.00 0.52 0.42 78 1007.2
20260505004009 50 147 2.0 6.0 0.00 0.52 0.42 78 1007.3
20260505003507 50 93 1.0 7.0 0.00 0.52 0.42 78 1007.6
20260505003027 50 138 3.0 7.0 0.00 0.52 0.42 76 1007.8
20260505002511 50 148 2.0 5.0 0.00 0.52 0.42 75 1007.9
20260505002012 51 88 2.0 7.0 0.00 0.52 0.42 76 1008.1
20260505001528 51 141 2.0 10.0 0.00 0.52 0.42 76 1008.0
20260505001008 52 156 5.0 10.0 0.00 0.52 0.42 73 1008.1
20260505000508 52 112 3.0 6.0 0.00 0.52 0.42 72 1008.2
20260505000031 52 153 1.0 5.0 0.00 0.52 0.42 74 1008.2
20260504235511 52 0 1.0 5.0 0.00 0.52 0.42 70 1008.3
20260504235011 52 117 1.0 4.0 0.00 0.52 0.42 73 1008.4
20260504234531 52 159 1.0 7.0 0.00 0.52 0.42 75 1008.4
20260504234011 51 132 2.0 7.0 0.00 0.52 0.42 78 1008.3
20260504233510 51 0 0.0 1.0 0.00 0.52 0.42 85 1008.3
20260504233030 50 24 0.0 2.0 0.00 0.52 0.42 84 1008.4
20260504232508 49 0 1.0 2.0 0.00 0.52 0.42 83 1008.4
20260504232010 49 11 1.0 2.0 0.00 0.52 0.42 86 1008.7
20260504231529 49 43 0.0 2.0 0.00 0.52 0.42 85 1008.9
20260504231010 49 82 0.0 1.0 0.00 0.52 0.42 85 1009.0
20260504230508 48 312 0.0 2.0 0.00 0.52 0.42 88 1009.2
20260504230030 48 26 0.0 3.0 0.00 0.52 0.42 89 1009.4
20260504225510 47 43 0.0 3.0 0.00 0.52 0.42 89 1009.4
20260504225010 47 96 1.0 2.0 0.00 0.52 0.42 89 1009.5
20260504224535 47 343 1.0 3.0 0.00 0.52 0.42 87 1009.4
20260504224010 47 43 1.0 3.0 0.00 0.52 0.42 88 1009.6
20260504223513 46 69 0.0 3.0 0.00 0.52 0.42 87 1009.8
20260504223029 46 105 0.0 3.0 0.00 0.52 0.42 89 1009.5
20260504222509 46 35 0.0 3.0 0.00 0.52 0.42 89 1009.6
20260504222010 46 117 1.0 4.0 0.00 0.52 0.42 89 1009.8
20260504221557 46 26 1.0 4.0 0.00 0.52 0.42 90 1010.0
20260504221009 45 351 1.0 4.0 0.00 0.52 0.42 91 1010.0